Location: R�serve Fauniques des Laurentides
(47.3100°N, 71.1900°W)
Time: 03:47:56
(UTC-05:00)

Amateur Radio Satellites - All Passes

Search period start: 10 February 2016 03:17
Search period end: 11 February 2016 03:17
Location: R�serve Fauniques des Laurentides, 47.3100°N, 71.1900°W

Satellite Date Start Highest point End Downlink Frequencies (MHz)
Time Altitude Azimuth
AIST 2 10 Feb 03:18:11 03:22:19 76° 235° (SW) 03:26:25 435.215
CUSAT 1 10 Feb 03:32:55 03:38:58 22° 302° (WNW) 03:44:52 437.405
CUBESAT XI-V 10 Feb 03:33:44 03:37:37 26° 64° (ENE) 03:41:32 437.345
Cosmos 2491 10 Feb 03:40:43 03:47:43 28° 280° (W) 03:54:42 435.465 / 435.565
SO-50 10 Feb 04:05:04 04:09:15 29° 115° (ESE) 04:13:29 436.795
DANDE 10 Feb 04:06:43 04:12:54 23° 304° (NW) 04:19:16 436.750
Cosmos 2504 10 Feb 04:06:46 04:14:58 50° 88° (E) 04:23:26 435.465 / 435.565
AO-7 10 Feb 04:11:17 04:19:41 88° 294° (WNW) 04:28:00 29.400- 29.500
HORYU 2 10 Feb 04:13:28 04:17:54 64° 102° (ESE) 04:22:19 437.375
Gurwin Techsat 1B 10 Feb 04:15:05 04:17:05 12° 308° (NW) 04:19:06 435.225
STRAND 1 10 Feb 04:18:16 04:20:49 14° 55° (NE) 04:23:24 437.568
STARS 10 Feb 04:21:55 04:22:42 10° 273° (W) 04:23:28 437.465
M-CUBED/EXP-1 PRIME 10 Feb 04:27:38 04:31:00 83° 291° (WNW) 04:34:32 437.505
PHONESAT 2.4 10 Feb 04:31:28 04:33:40 17° 197° (SSW) 04:35:52 2401.200-2431.200
MOZHAYETS 4 10 Feb 04:32:22 04:34:23 13° 273° (W) 04:36:25
YUBILEINY 10 Feb 04:33:56 04:41:53 37° 293° (WNW) 04:49:57 435.215
AUBIESAT-1 10 Feb 04:37:19 04:40:44 77° 289° (WNW) 04:44:18 437.475
CUTE-I 10 Feb 04:50:26 04:53:31 15° 88° (E) 04:56:36 437.470
ITAMSAT 1 10 Feb 04:53:21 04:54:13 10° 309° (NW) 04:55:05 435.822/435.867
Cubesat XI-IV 10 Feb 05:03:36 05:07:30 20° 91° (E) 05:11:23 437.490
CUBESAT XI-V 10 Feb 05:10:23 05:14:49 41° 263° (W) 05:19:19 437.345
BRITE-PL 10 Feb 05:32:48 05:36:07 19° 88° (E) 05:39:16 437.365/2234.400
LilacSat-2 10 Feb 05:40:58 05:44:25 32° 97° (E) 05:47:49 437.200
SO-50 10 Feb 05:44:45 05:49:33 50° 315° (NW) 05:54:23 436.795
HORYU 2 10 Feb 05:51:11 05:54:01 17° 300° (WNW) 05:56:51 437.375
STRAND 1 10 Feb 05:54:05 05:59:12 81° 73° (ENE) 06:04:22 437.568
Cosmos 2504 10 Feb 06:00:19 06:08:30 44° 290° (WNW) 06:16:58 435.465 / 435.565
AO-7 10 Feb 06:05:01 06:11:28 26° 312° (NW) 06:17:54 29.400- 29.500
DOVE 4 10 Feb 06:18:48 06:20:35 12° 87° (E) 06:22:21 437.250
HO-68 10 Feb 06:19:32 06:21:42 11° 83° (E) 06:23:52 435.675
CUTE-I 10 Feb 06:28:50 06:34:15 83° 286° (WNW) 06:39:38 437.470
GOMX 1 10 Feb 06:37:00 06:41:12 37° 96° (E) 06:45:08 467.674
PRISM 10 Feb 06:39:47 06:43:56 77° 76° (ENE) 06:48:09 437.425
Cubesat XI-IV 10 Feb 06:42:42 06:48:03 65° 289° (WNW) 06:53:22 437.490
O/OREOS (USA 219) 10 Feb 06:48:28 06:51:47 21° 102° (ESE) 06:55:08 437.305
BRITE-PL 10 Feb 07:10:20 07:15:05 54° 289° (WNW) 07:19:26 437.365/2234.400
CINEMA 3 10 Feb 07:10:53 07:13:20 15° 90° (E) 07:15:47 145.822/145.860
COMPASS 1 10 Feb 07:14:41 07:16:15 12° 88° (E) 07:17:50 437.405
LilacSat-2 10 Feb 07:15:38 07:18:35 22° 294° (WNW) 07:21:32 437.200
Cosmos 2499 10 Feb 07:21:09 07:24:02 12° 69° (ENE) 07:26:55 435.465 / 435.565
CUTE 1.7 + AOD 2 10 Feb 07:21:49 07:25:21 24° 93° (E) 07:28:52 437.475
SEEDS 10 Feb 07:27:53 07:31:13 22° 93° (E) 07:34:32 437.485
SO-50 10 Feb 07:28:10 07:31:12 16° 336° (NNW) 07:34:13 436.795
STRAND 1 10 Feb 07:36:16 07:39:02 15° 272° (W) 07:41:49 437.568
UNISAT 6 10 Feb 07:40:06 07:40:49 10° 57° (ENE) 07:41:31 437.425
AAUSAT CUBESAT 2 10 Feb 07:41:55 07:44:56 19° 92° (E) 07:47:57 437.432
DOVE 4 10 Feb 07:54:36 07:58:53 68° 286° (WNW) 08:03:00 437.250
GONETS M04 10 Feb 08:01:39 08:09:49 49° 88° (E) 08:18:04
Cosmos 2504 10 Feb 08:02:20 08:04:49 11° 317° (NW) 08:07:19 435.465 / 435.565
HO-68 10 Feb 08:03:43 08:10:53 62° 103° (ESE) 08:18:00 435.675
CANX-2 10 Feb 08:06:27 08:10:45 79° 100° (E) 08:15:04 2200.000
ZACube-1 10 Feb 08:10:16 08:12:11 13° 89° (E) 08:14:06 437.345
CUTE-I 10 Feb 08:10:33 08:13:30 15° 306° (NW) 08:16:27 437.470
GOMX 1 10 Feb 08:15:28 08:19:07 25° 296° (WNW) 08:22:36 467.674
PRISM 10 Feb 08:18:31 08:19:50 11° 272° (W) 08:21:10 437.425
FUNcube-1 10 Feb 08:18:43 08:21:11 15° 90° (E) 08:23:39 145.935
ANTELSAT 10 Feb 08:21:53 08:25:24 25° 65° (ENE) 08:28:55 437.575/2403.000
Cubesat XI-IV 10 Feb 08:25:11 08:27:07 12° 308° (NW) 08:29:04 437.490
O/OREOS (USA 219) 10 Feb 08:26:31 08:30:52 48° 301° (WNW) 08:35:15 437.305
TIGRISAT 10 Feb 08:28:30 08:32:10 28° 66° (ENE) 08:35:47 435.000
CINEMA 3 10 Feb 08:46:48 08:50:52 54° 288° (WNW) 08:54:55 145.822/145.860
COMPASS 1 10 Feb 08:48:08 08:52:22 75° 284° (WNW) 08:56:34 437.405
Oscar 11 10 Feb 08:50:05 08:54:14 41° 98° (E) 08:58:21 145.826/435.025
CUBEBUG 2 10 Feb 08:51:21 08:55:30 63° 101° (E) 08:59:44 437.445
UWE-3 10 Feb 08:51:28 08:55:32 46° 99° (E) 08:59:38 435.000/436.395/437.385
DELFI C3 10 Feb 08:53:09 08:56:30 24° 94° (E) 08:59:51 145.870
CUTE 1.7 + AOD 2 10 Feb 08:57:21 09:01:18 36° 291° (WNW) 09:05:13 437.475
SEEDS 10 Feb 09:03:06 09:07:05 40° 290° (WNW) 09:11:04 437.485
AO-85 10 Feb 09:06:09 09:10:08 22° 110° (ESE) 09:14:13 145.980
Cosmos 2499 10 Feb 09:06:39 09:15:06 56° 90° (E) 09:23:42 435.465 / 435.565
UNISAT 6 10 Feb 09:12:30 09:16:49 80° 74° (ENE) 09:21:06 437.425
RS-15 10 Feb 09:13:05 09:19:20 17° 95° (E) 09:25:43 29.354- 29.394
SO-50 10 Feb 09:13:07 09:13:48 10° 1° (N) 09:14:28 436.795
AAUSAT CUBESAT 2 10 Feb 09:16:39 09:20:40 45° 289° (WNW) 09:24:41 437.432
PCSat 10 Feb 09:21:01 09:24:26 17° 105° (ESE) 09:27:53 145.827
POLYITAN 1 10 Feb 09:21:51 09:25:26 27° 66° (ENE) 09:29:02 437.675
QB50P2 10 Feb 09:22:25 09:26:04 29° 66° (ENE) 09:29:42 145.880/145.840
BUGSAT 1 10 Feb 09:23:47 09:26:17 16° 61° (ENE) 09:28:46 437.445
CANX-2 10 Feb 09:44:00 09:46:03 13° 301° (WNW) 09:48:05 2200.000
ZACube-1 10 Feb 09:44:45 09:48:56 68° 286° (WNW) 09:53:10 437.345
POPSAT HIP 1 10 Feb 09:51:30 09:55:37 52° 71° (ENE) 09:59:45 437.405
HO-68 10 Feb 09:52:00 09:58:12 32° 303° (WNW) 10:04:23 435.675
FUNcube-1 10 Feb 09:53:41 09:57:48 58° 287° (WNW) 10:01:59 145.935
NANOSAT C BR1 10 Feb 09:55:56 10:00:05 57° 72° (ENE) 10:04:14 145.865
DUCHIFAT 1 10 Feb 09:57:12 10:01:19 56° 73° (ENE) 10:05:28 145.980
ANTELSAT 10 Feb 09:58:03 10:02:01 35° 263° (W) 10:05:58 437.575/2403.000
GONETS M04 10 Feb 09:58:37 10:06:47 43° 290° (WNW) 10:15:02
VELOX 1 10 Feb 10:00:00 10:01:30 11° 88° (E) 10:03:00 145.980
HUMSAT D 10 Feb 10:00:17 10:04:24 55° 100° (E) 10:08:31 437.325/437.525
JAS-2 10 Feb 10:02:55 10:04:11 11° 46° (NE) 10:05:26 435.910
QB50P1 10 Feb 10:04:00 10:08:13 72° 75° (ENE) 10:12:27 145.935-145.965
TIGRISAT 10 Feb 10:04:57 10:08:48 31° 264° (W) 10:12:38 435.000
AISAT 10 Feb 10:15:32 10:18:31 18° 91° (E) 10:21:28 437.250
AIST 1 10 Feb 10:24:56 10:29:20 89° 278° (W) 10:33:47
UKube-1 10 Feb 10:26:05 10:29:12 19° 92° (E) 10:32:18 .
Oscar 11 10 Feb 10:26:43 10:30:08 23° 296° (WNW) 10:33:33 145.826/435.025
DELFI C3 10 Feb 10:27:50 10:31:28 32° 292° (WNW) 10:35:06 145.870
UWE-3 10 Feb 10:28:43 10:31:44 20° 296° (WNW) 10:34:47 435.000/436.395/437.385
CUBEBUG 2 10 Feb 10:29:19 10:31:43 15° 299° (WNW) 10:34:07 437.445
CUBEBUG 1 10 Feb 10:33:45 10:37:09 22° 93° (E) 10:40:31 437.445
50 SAT 10 Feb 10:35:38 10:39:01 30° 96° (E) 10:42:25 437.505
ESTCUBE 1 10 Feb 10:38:12 10:42:19 32° 96° (E) 10:46:23 437.505/2401.250
DX 1 10 Feb 10:38:19 10:42:10 29° 96° (E) 10:45:57 434.975-435.025
CUSAT 1 10 Feb 10:41:31 10:45:33 17° 53° (NE) 10:49:01 437.405
AO-85 10 Feb 10:44:45 10:50:10 74° 309° (NW) 10:55:42 145.980
UNISAT 6 10 Feb 10:52:54 10:54:07 11° 272° (W) 10:55:20 437.425
SO-50 10 Feb 10:53:05 10:56:21 17° 26° (NNE) 10:59:34 436.795
BUGSAT 1 10 Feb 10:57:05 11:01:14 62° 258° (WSW) 11:05:23 437.445
POLYITAN 1 10 Feb 10:57:24 11:01:12 31° 264° (W) 11:05:00 437.675
QB50P2 10 Feb 10:58:04 11:01:50 30° 264° (W) 11:05:36 145.880/145.840
Cosmos 2499 10 Feb 11:00:26 11:08:34 40° 292° (WNW) 11:16:50 435.465 / 435.565
PCSat 10 Feb 11:01:43 11:07:09 82° 304° (NW) 11:12:38 145.827
DANDE 10 Feb 11:17:17 11:23:05 24° 56° (ENE) 11:27:56 436.750
RS-15 10 Feb 11:18:13 11:29:12 68° 118° (ESE) 11:40:50 29.354- 29.394
POPSAT HIP 1 10 Feb 11:29:01 11:31:45 17° 269° (W) 11:34:28 437.405
NANOSAT C BR1 10 Feb 11:33:41 11:36:11 15° 270° (W) 11:38:42 145.865
VELOX 1 10 Feb 11:34:08 11:38:36 82° 284° (WNW) 11:42:59 145.980
DUCHIFAT 1 10 Feb 11:34:53 11:37:24 15° 270° (W) 11:39:56 145.980
AO-7 10 Feb 11:35:09 11:38:45 14° 34° (NE) 11:42:20 29.400- 29.500
HUMSAT D 10 Feb 11:36:58 11:39:40 17° 298° (WNW) 11:42:23 437.325/437.525
JAS-2 10 Feb 11:40:43 11:47:44 44° 66° (ENE) 11:54:09 435.910
Oscar 19 10 Feb 11:42:45 11:47:43 49° 69° (ENE) 11:52:42 437.125/150
QB50P1 10 Feb 11:42:46 11:44:31 12° 272° (W) 11:46:15 145.935-145.965
AISAT 10 Feb 11:51:02 11:55:20 53° 289° (WNW) 11:59:37 437.250
UKube-1 10 Feb 12:01:21 12:05:31 47° 290° (WNW) 12:09:39 .
GONETS M04 10 Feb 12:05:30 12:06:38 10° 318° (NW) 12:07:46
AIST 1 10 Feb 12:06:28 12:07:40 11° 298° (WNW) 12:08:53
CUBEBUG 1 10 Feb 12:09:30 12:13:38 42° 291° (WNW) 12:17:44 437.445
SPROUT 10 Feb 12:09:39 12:13:57 79° 105° (ESE) 12:18:11 437.525
50 SAT 10 Feb 12:09:52 12:12:56 24° 294° (WNW) 12:16:01 437.505
DX 1 10 Feb 12:14:29 12:18:20 31° 294° (WNW) 12:22:10 434.975-435.025
ESTCUBE 1 10 Feb 12:15:05 12:19:05 31° 294° (WNW) 12:23:03 437.505/2401.250
TISAT 1 10 Feb 12:17:01 12:20:54 35° 98° (E) 12:24:43 437.305
Gurwin Techsat 1B 10 Feb 12:17:43 12:22:38 40° 66° (ENE) 12:27:36 435.225
CUSAT 1 10 Feb 12:22:50 12:29:04 82° 262° (W) 12:33:40 437.405
AO-85 10 Feb 12:27:24 12:31:37 22° 331° (NNW) 12:35:51 145.980
SWISSCUBE 10 Feb 12:32:27 12:34:30 12° 87° (E) 12:36:32 437.505
SO-50 10 Feb 12:33:00 12:37:51 61° 48° (NE) 12:42:31 436.795
YUBILEINY 10 Feb 12:42:19 12:50:16 35° 66° (ENE) 12:58:08 435.215
PCSat 10 Feb 12:47:23 12:51:25 21° 326° (NW) 12:55:27 145.827
ITAMSAT 1 10 Feb 12:52:43 12:57:37 44° 67° (ENE) 13:02:35 435.822/435.867
Cosmos 2491 10 Feb 12:56:02 13:00:56 17° 73° (ENE) 13:05:49 435.465 / 435.565
DANDE 10 Feb 12:59:46 13:07:07 75° 263° (W) 13:12:40 436.750
ITUPSAT 1 10 Feb 13:08:06 13:12:02 24° 94° (E) 13:15:57 437.325
VELOX 1 10 Feb 13:12:57 13:14:20 11° 304° (NW) 13:15:43 145.980
BEESAT 10 Feb 13:16:02 13:20:14 29° 95° (E) 13:24:24 436.000
AO-7 10 Feb 13:21:39 13:29:23 44° 58° (ENE) 13:37:07 29.400- 29.500
Oscar 19 10 Feb 13:23:03 13:27:17 25° 267° (W) 13:31:33 437.125/150
JAS-2 10 Feb 13:25:33 13:32:45 44° 263° (W) 13:39:22 435.910
RS-15 10 Feb 13:31:20 13:42:18 50° 326° (NW) 13:53:55 29.354- 29.394
HORYU 2 10 Feb 13:41:16 13:42:57 12° 56° (ENE) 13:44:37 437.375
M-CUBED/EXP-1 PRIME 10 Feb 13:44:29 13:47:06 20° 60° (ENE) 13:49:37 437.505
SPROUT 10 Feb 13:47:20 13:49:20 13° 301° (WNW) 13:51:20 437.525
TISAT 1 10 Feb 13:53:01 13:56:25 24° 295° (WNW) 13:59:48 437.305
AUBIESAT-1 10 Feb 13:53:41 13:56:21 20° 61° (ENE) 13:58:57 437.475
Cosmos 2504 10 Feb 13:56:09 14:02:52 24° 58° (ENE) 14:09:15 435.465 / 435.565
Gurwin Techsat 1B 10 Feb 13:57:59 14:02:41 32° 265° (W) 14:07:25 435.225
CUSAT 1 10 Feb 14:08:03 14:09:45 11° 287° (WNW) 14:11:20 437.405
SWISSCUBE 10 Feb 14:08:07 14:12:57 86° 288° (WNW) 14:17:46 437.505
AO-85 10 Feb 14:12:03 14:14:12 12° 355° (N) 14:16:20 145.980
SO-50 10 Feb 14:14:18 14:17:55 21° 248° (WSW) 14:21:27 436.795
STARS 10 Feb 14:29:20 14:31:19 13° 89° (E) 14:33:17 437.465
ITAMSAT 1 10 Feb 14:32:53 14:37:16 28° 266° (W) 14:41:43 435.822/435.867
YUBILEINY 10 Feb 14:38:57 14:47:37 62° 268° (W) 14:56:14 435.215
MOZHAYETS 4 10 Feb 14:45:10 14:47:53 15° 89° (E) 14:50:35
DANDE 10 Feb 14:45:14 14:48:20 14° 287° (WNW) 14:51:10 436.750
ITUPSAT 1 10 Feb 14:45:29 14:50:04 44° 291° (WNW) 14:54:39 437.325
KKS-1 10 Feb 14:46:25 14:50:27 33° 97° (E) 14:54:27 437.445
Cosmos 2491 10 Feb 14:47:31 14:56:11 75° 95° (E) 15:04:53 435.465 / 435.565
BEESAT 10 Feb 14:53:41 14:58:06 37° 293° (WNW) 15:02:29 436.000
AO-7 10 Feb 15:13:55 15:22:02 53° 258° (WSW) 15:30:12 29.400- 29.500
HORYU 2 10 Feb 15:14:24 15:18:49 87° 73° (ENE) 15:23:16 437.375
O/OREOS (USA 219) 10 Feb 15:16:10 15:18:09 12° 42° (NE) 15:20:08 437.305
M-CUBED/EXP-1 PRIME 10 Feb 15:18:22 15:21:38 32° 256° (WSW) 15:24:44 437.505
AUBIESAT-1 10 Feb 15:27:38 15:30:51 30° 256° (WSW) 15:33:55 437.475
ISS 10 Feb 15:28:42 15:31:41 34° 144° (SE) 15:34:40 145.825
SWISSCUBE 10 Feb 15:47:44 15:50:02 13° 304° (NW) 15:52:19 437.505
RS-15 10 Feb 15:48:00 15:58:19 34° 359° (N) 16:09:02 29.354- 29.394
Cosmos 2504 10 Feb 15:48:50 15:57:36 89° 262° (W) 16:05:45 435.465 / 435.565
AO-85 10 Feb 15:53:46 15:57:00 16° 20° (NNE) 16:00:08 145.980
STARS 10 Feb 16:03:50 16:08:13 73° 287° (WNW) 16:12:34 437.465
GOMX 1 10 Feb 16:13:49 16:15:03 11° 55° (NE) 16:16:18 467.674
CUTE-I 10 Feb 16:14:44 16:19:29 34° 65° (ENE) 16:24:18 437.470
MOZHAYETS 4 10 Feb 16:20:54 16:25:32 68° 286° (WNW) 16:30:08
PCSat 10 Feb 16:21:16 16:23:14 12° 19° (NNE) 16:25:11 145.827
KKS-1 10 Feb 16:23:09 16:26:57 29° 295° (WNW) 16:30:45 437.445
LilacSat-2 10 Feb 16:26:16 16:29:28 26° 68° (ENE) 16:32:41 437.200
Cubesat XI-IV 10 Feb 16:28:22 16:33:22 44° 67° (ENE) 16:38:27 437.490
BEESAT 3 10 Feb 16:30:05 16:33:46 37° 119° (ESE) 16:37:29 437.485
YUBILEINY 10 Feb 16:38:56 16:42:28 13° 290° (WNW) 16:46:01 435.215
BRITE-PL 10 Feb 16:45:04 16:50:10 35° 67° (ENE) 16:55:07 437.365/2234.400
Cosmos 2491 10 Feb 16:46:41 16:53:56 29° 298° (WNW) 17:01:16 435.465 / 435.565
HO-68 10 Feb 16:51:46 16:55:51 16° 46° (NE) 16:59:57 435.675
O/OREOS (USA 219) 10 Feb 16:53:51 16:58:27 70° 63° (ENE) 17:03:03 437.305
HORYU 2 10 Feb 16:54:59 16:56:01 11° 273° (W) 16:57:04 437.375
BEESAT 2 10 Feb 16:55:26 16:59:15 44° 121° (ESE) 17:03:07 435.950
CUBESAT XI-V 10 Feb 17:03:32 17:07:59 39° 97° (E) 17:12:22 437.345
ISS 10 Feb 17:04:51 17:08:03 55° 342° (NNW) 17:11:16 145.825
DOVE 4 10 Feb 17:26:03 17:29:57 23° 64° (ENE) 17:33:42 437.250
CANX-2 10 Feb 17:30:19 17:31:06 10° 57° (ENE) 17:31:53 2200.000
AO-85 10 Feb 17:33:53 17:38:57 43° 43° (NE) 17:43:39 145.980
Cosmos 2504 10 Feb 17:43:45 17:49:41 21° 285° (WNW) 17:55:24 435.465 / 435.565
GOMX 1 10 Feb 17:46:58 17:52:15 62° 73° (ENE) 17:57:18 467.674
CUTE-I 10 Feb 17:54:34 17:59:30 38° 263° (W) 18:04:29 437.470
LilacSat-2 10 Feb 18:00:30 18:03:46 27° 265° (W) 18:07:02 437.200
MOZHAYETS 4 10 Feb 18:01:28 18:01:49 10° 305° (NW) 18:02:12
STRAND 1 10 Feb 18:02:05 18:06:03 22° 92° (E) 18:10:00 437.568
RS-15 10 Feb 18:03:00 18:14:31 48° 32° (NNE) 18:26:19 29.354- 29.394
PCSat 10 Feb 18:03:30 18:08:24 33° 43° (NE) 18:13:17 145.827
GONETS M04 10 Feb 18:07:36 18:15:04 30° 63° (ENE) 18:22:31
BEESAT 3 10 Feb 18:08:04 18:11:36 29° 318° (NW) 18:15:09 437.485
COMPASS 1 10 Feb 18:08:52 18:10:51 13° 59° (ENE) 18:12:51 437.405
Cubesat XI-IV 10 Feb 18:09:01 18:13:36 29° 265° (W) 18:18:16 437.490
CINEMA 3 10 Feb 18:15:10 18:18:44 23° 65° (ENE) 18:22:12 145.822/145.860
CUTE 1.7 + AOD 2 10 Feb 18:17:39 18:21:10 26° 66° (ENE) 18:24:42 437.475
SEEDS 10 Feb 18:22:53 18:26:11 23° 65° (ENE) 18:29:31 437.485
BRITE-PL 10 Feb 18:23:13 18:28:33 40° 264° (W) 18:33:45 437.365/2234.400
BEESAT 2 10 Feb 18:33:53 18:37:20 26° 320° (NW) 18:40:47 435.950
O/OREOS (USA 219) 10 Feb 18:34:45 18:37:17 15° 261° (W) 18:39:49 437.305
HO-68 10 Feb 18:35:11 18:42:15 64° 67° (ENE) 18:49:21 435.675
AAUSAT CUBESAT 2 10 Feb 18:35:33 18:38:34 20° 63° (ENE) 18:41:36 437.432
CUBESAT XI-V 10 Feb 18:41:15 18:45:13 27° 295° (WNW) 18:49:08 437.345
ISS 10 Feb 18:41:50 18:44:53 36° 3° (N) 18:47:56 145.825
Cosmos 2499 10 Feb 18:55:01 19:01:48 25° 59° (ENE) 19:08:11 435.465 / 435.565
AIST 2 10 Feb 18:56:24 19:00:35 82° 125° (SE) 19:04:47 435.215
CANX-2 10 Feb 19:02:02 19:06:14 82° 78° (ENE) 19:10:30 2200.000
DOVE 4 10 Feb 19:02:28 19:07:24 51° 261° (W) 19:12:05 437.250
ZACube-1 10 Feb 19:09:17 19:11:49 16° 62° (ENE) 19:14:21 437.345
AO-85 10 Feb 19:14:43 19:19:25 35° 244° (WSW) 19:23:44 145.980
FUNcube-1 10 Feb 19:17:33 19:20:23 18° 63° (ENE) 19:23:14 145.935
GOMX 1 10 Feb 19:26:45 19:30:40 20° 269° (W) 19:34:30 467.674
STRAND 1 10 Feb 19:40:31 19:45:34 56° 290° (WNW) 19:50:36 437.568
COMPASS 1 10 Feb 19:41:44 19:45:52 74° 256° (WSW) 19:50:04 437.405
DELFI C3 10 Feb 19:42:44 19:45:53 23° 65° (ENE) 19:49:03 145.870
PCSat 10 Feb 19:46:46 19:52:03 51° 244° (WSW) 19:57:16 145.827
Oscar 11 10 Feb 19:47:41 19:51:48 47° 71° (ENE) 19:55:58 145.826/435.025
CINEMA 3 10 Feb 19:51:19 19:55:41 42° 262° (W) 19:59:54 145.822/145.860
UWE-3 10 Feb 19:51:27 19:55:36 55° 72° (ENE) 19:59:41 435.000/436.395/437.385
CUBEBUG 2 10 Feb 19:52:23 19:56:40 78° 76° (ENE) 20:00:53 437.445
CUTE 1.7 + AOD 2 10 Feb 19:53:06 19:56:55 33° 264° (W) 20:00:46 437.475
PRISM 10 Feb 19:53:39 19:57:52 81° 105° (ESE) 20:02:02 437.425
SEEDS 10 Feb 19:57:49 20:01:42 38° 263° (W) 20:05:40 437.485
GONETS M04 10 Feb 20:04:00 20:12:46 74° 266° (W) 20:21:33
AAUSAT CUBESAT 2 10 Feb 20:09:49 20:13:47 45° 261° (W) 20:17:48 437.432
RS-15 10 Feb 20:15:57 20:28:02 76° 239° (WSW) 20:40:18 29.354- 29.394
ISS 10 Feb 20:18:23 20:21:38 74° 21° (NNE) 20:24:52 145.825
HO-68 10 Feb 20:24:21 20:30:26 29° 267° (W) 20:36:35 435.675
AIST 1 10 Feb 20:29:01 20:32:55 31° 72° (ENE) 20:36:45
AIST 2 10 Feb 20:36:35 20:39:36 19° 326° (NW) 20:42:38 435.215
CANX-2 10 Feb 20:41:50 20:42:43 10° 273° (W) 20:43:34 2200.000
ZACube-1 10 Feb 20:43:34 20:47:43 59° 259° (W) 20:51:50 437.345
Cosmos 2499 10 Feb 20:47:33 20:56:05 82° 264° (W) 21:03:55 435.465 / 435.565
FUNcube-1 10 Feb 20:52:16 20:56:20 49° 260° (W) 21:00:23 145.935
HUMSAT D 10 Feb 20:54:36 20:58:35 56° 73° (ENE) 21:02:37 437.325/437.525
VELOX 1 10 Feb 20:59:49 21:02:43 17° 60° (ENE) 21:05:37 145.980
UNISAT 6 10 Feb 21:02:30 21:04:33 13° 89° (E) 21:06:36 437.425
AISAT 10 Feb 21:15:48 21:19:25 25° 64° (ENE) 21:23:02 437.250
DELFI C3 10 Feb 21:16:59 21:20:38 34° 263° (W) 21:24:20 145.870
50 SAT 10 Feb 21:19:11 21:22:13 24° 66° (ENE) 21:25:16 437.505
UKube-1 10 Feb 21:23:33 21:27:06 25° 64° (ENE) 21:30:41 .
Oscar 11 10 Feb 21:25:07 21:28:12 19° 269° (W) 21:31:18 145.826/435.025
UWE-3 10 Feb 21:29:54 21:32:25 15° 270° (W) 21:34:56 435.000/436.395/437.385
PRISM 10 Feb 21:30:45 21:32:36 13° 302° (WNW) 21:34:26 437.425
CUBEBUG 2 10 Feb 21:32:32 21:33:50 11° 272° (W) 21:35:08 437.445
CUBEBUG 1 10 Feb 21:32:34 21:36:20 28° 66° (ENE) 21:40:07 437.445
SPROUT 10 Feb 21:33:39 21:35:07 12° 57° (ENE) 21:36:35 437.525
DX 1 10 Feb 21:36:37 21:40:41 38° 68° (ENE) 21:44:47 434.975-435.025
ESTCUBE 1 10 Feb 21:40:33 21:44:50 43° 69° (ENE) 21:49:10 437.505/2401.250
ANTELSAT 10 Feb 21:46:01 21:50:01 35° 97° (E) 21:54:04 437.575/2403.000
TIGRISAT 10 Feb 21:52:32 21:56:35 38° 98° (E) 22:00:42 435.000
ISS 10 Feb 21:55:14 21:57:49 22° 221° (SW) 22:00:23 145.825
GONETS M04 10 Feb 22:03:05 22:07:59 16° 287° (WNW) 22:12:53
AIST 1 10 Feb 22:06:46 22:10:26 27° 271° (W) 22:14:04
RS-15 10 Feb 22:30:12 22:38:28 22° 262° (W) 22:46:50 29.354- 29.394
HUMSAT D 10 Feb 22:32:22 22:34:38 14° 270° (W) 22:36:53 437.325/437.525
VELOX 1 10 Feb 22:34:19 22:38:45 63° 258° (WSW) 22:43:12 145.980
BUGSAT 1 10 Feb 22:37:09 22:39:27 15° 90° (E) 22:41:43 437.445
UNISAT 6 10 Feb 22:37:26 22:41:45 71° 286° (WNW) 22:46:08 437.425
POLYITAN 1 10 Feb 22:38:56 22:42:42 31° 96° (E) 22:46:28 437.675
QB50P2 10 Feb 22:39:30 22:43:20 33° 97° (E) 22:47:08 145.880/145.840
Cosmos 2499 10 Feb 22:42:34 22:47:44 18° 286° (WNW) 22:52:43 435.465 / 435.565
AISAT 10 Feb 22:51:29 22:55:43 41° 262° (W) 22:59:57 437.250
50 SAT 10 Feb 22:52:57 22:56:10 28° 264° (W) 22:59:24 437.505
UKube-1 10 Feb 22:58:59 23:03:00 37° 262° (W) 23:07:04 .
Cosmos 2491 10 Feb 23:00:46 23:02:27 11° 43° (NE) 23:04:08 435.465 / 435.565
SPROUT 10 Feb 23:06:07 23:10:25 88° 85° (E) 23:14:45 437.525
BEESAT 3 10 Feb 23:07:57 23:10:02 14° 29° (NNE) 23:12:08 437.485
CUBEBUG 1 10 Feb 23:08:29 23:12:32 34° 263° (W) 23:16:37 437.445
POPSAT HIP 1 10 Feb 23:08:47 23:12:58 63° 102° (ESE) 23:17:08 437.405
TISAT 1 10 Feb 23:11:36 23:15:34 40° 69° (ENE) 23:19:32 437.305
NANOSAT C BR1 10 Feb 23:12:50 23:17:02 69° 102° (ESE) 23:21:12 145.865
DX 1 10 Feb 23:13:26 23:17:00 24° 266° (W) 23:20:36 434.975-435.025
DUCHIFAT 1 10 Feb 23:13:49 23:18:00 67° 103° (ESE) 23:22:09 145.980
ESTCUBE 1 10 Feb 23:18:17 23:21:51 23° 267° (W) 23:25:27 437.505/2401.250
QB50P1 10 Feb 23:21:19 23:25:34 87° 110° (ESE) 23:29:46 145.935-145.965
ANTELSAT 10 Feb 23:23:01 23:26:39 27° 294° (WNW) 23:30:19 437.575/2403.000
TIGRISAT 10 Feb 23:29:39 23:33:08 24° 295° (WNW) 23:36:39 435.000
BEESAT 2 10 Feb 23:33:48 23:36:15 15° 31° (NNE) 23:38:40 435.950
SWISSCUBE 10 Feb 23:41:19 23:44:57 22° 61° (ENE) 23:48:35 437.505
CUSAT 1 10 Feb 23:46:49 23:52:33 22° 81° (E) 23:58:10 437.405
Oscar 19 10 Feb 23:52:52 23:55:08 13° 87° (E) 23:57:24 437.125/150
BUGSAT 1 11 Feb 00:11:14 00:15:12 54° 288° (WNW) 00:19:07 437.445
POLYITAN 1 11 Feb 00:14:54 00:18:27 27° 294° (WNW) 00:22:01 437.675
QB50P2 11 Feb 00:15:31 00:19:03 26° 294° (WNW) 00:22:34 145.880/145.840
ITUPSAT 1 11 Feb 00:17:41 00:22:08 40° 68° (ENE) 00:26:37 437.325
PHONESAT 2.4 11 Feb 00:24:06 00:25:49 13° 159° (SSE) 00:27:31 2401.200-2431.200
BEESAT 11 Feb 00:25:18 00:29:52 47° 69° (ENE) 00:34:28 436.000
DANDE 11 Feb 00:27:57 00:34:18 26° 81° (E) 00:40:54 436.750
Gurwin Techsat 1B 11 Feb 00:32:38 00:34:33 12° 86° (E) 00:36:29 435.225
JAS-2 11 Feb 00:32:56 00:37:16 22° 89° (E) 00:41:19 435.910
BEESAT 3 11 Feb 00:44:38 00:48:36 64° 51° (NE) 00:52:30 437.485
POPSAT HIP 1 11 Feb 00:45:51 00:48:19 15° 299° (WNW) 00:50:45 437.405
SPROUT 11 Feb 00:46:51 00:47:02 10° 273° (W) 00:47:13 437.525
TISAT 1 11 Feb 00:48:09 00:51:24 21° 267° (W) 00:54:40 437.305
NANOSAT C BR1 11 Feb 00:50:01 00:52:17 14° 300° (WNW) 00:54:32 145.865
DUCHIFAT 1 11 Feb 00:50:56 00:53:13 15° 300° (WNW) 00:55:30 145.980
Cosmos 2491 11 Feb 00:53:57 01:02:15 45° 70° (ENE) 01:10:32 435.465 / 435.565
QB50P1 11 Feb 00:59:11 01:00:42 12° 302° (WNW) 01:02:13 145.935-145.965
ITAMSAT 1 11 Feb 01:04:23 01:06:16 12° 86° (E) 01:08:10 435.822/435.867
BEESAT 2 11 Feb 01:10:48 01:14:50 76° 53° (NE) 01:18:48 435.950
SWISSCUBE 11 Feb 01:17:46 01:22:24 53° 260° (W) 01:27:07 437.505
CUSAT 1 11 Feb 01:25:49 01:33:54 86° 101° (ESE) 01:41:50 437.405
STARS 11 Feb 01:28:42 01:31:44 19° 61° (ENE) 01:34:47 437.465
Oscar 19 11 Feb 01:30:02 01:35:12 90° 286° (WNW) 01:40:20 437.125/150
AIST 2 11 Feb 01:37:03 01:40:27 23° 38° (NE) 01:43:48 435.215
KKS-1 11 Feb 01:47:17 01:51:32 46° 70° (ENE) 01:55:48 437.445
YUBILEINY 11 Feb 01:47:57 01:55:34 35° 83° (E) 02:03:12 435.215
MOZHAYETS 4 11 Feb 01:49:57 01:53:24 21° 63° (ENE) 01:56:51
ITUPSAT 1 11 Feb 01:56:04 02:00:06 27° 266° (W) 02:04:10 437.325
PHONESAT 2.4 11 Feb 01:59:44 02:02:27 24° 175° (S) 02:05:10 2401.200-2431.200
BEESAT 11 Feb 02:04:11 02:07:54 22° 267° (W) 02:11:39 436.000
DANDE 11 Feb 02:08:22 02:16:23 83° 281° (WNW) 02:24:56 436.750
Gurwin Techsat 1B 11 Feb 02:10:00 02:15:22 81° 105° (ESE) 02:20:41 435.225
JAS-2 11 Feb 02:17:15 02:22:54 56° 291° (WNW) 02:28:04 435.910
BEESAT 3 11 Feb 02:23:36 02:25:53 15° 249° (WSW) 02:28:09 437.485
Cosmos 2504 11 Feb 02:41:02 02:45:58 17° 72° (ENE) 02:50:57 435.465 / 435.565
ITAMSAT 1 11 Feb 02:41:17 02:46:34 82° 105° (ESE) 02:51:48 435.822/435.867
BEESAT 2 11 Feb 02:50:23 02:52:10 13° 250° (WSW) 02:53:55 435.950
Cosmos 2491 11 Feb 02:50:57 02:59:11 48° 272° (W) 03:07:26 435.465 / 435.565
STARS 11 Feb 03:03:25 03:07:44 55° 259° (W) 03:12:05 437.465
HORYU 2 11 Feb 03:03:51 03:05:58 13° 89° (E) 03:08:05 437.375
Oscar 19 11 Feb 03:10:55 03:13:48 15° 304° (NW) 03:16:42 437.125/150
